Regional Weather Roundup
Issued by NWS

Home | Current Version | Previous Version | Text Only | Print | Product List | Glossary On
Versions: 1 2 3 4 5 6 7 8 9 10 11 12 13 14 15 16 17 18 19 20 21 22 23 24 25 26 27 28 29 30 31 32 33 34 35 36 37 38 39 40 41 42 43 44 45 46 47 48 49 50
000
ASUS44 KOUN 190310
RWROK

WEATHER ROUNDUP FOR OKLAHOMA
NATIONAL WEATHER SERVICE NORMAN OK
900 PM CST SAT NOV 18 2017

NOTE: "FAIR" INDICATES FEW OR NO CLOUDS BELOW 12,000 FEET WITH NO
      SIGNIFICANT WEATHER AND/OR OBSTRUCTIONS TO VISIBILITY.

OKZ001>007-009>012-014-015-017-190400-
NORTHWEST OKLAHOMA AND THE PANHANDLE

CITY           SKY/WX    TMP DP  RH WIND       PRES   REMARKS
GAGE           CLEAR     35  17  47 W3        30.31R
GUYMON         CLEAR     33  17  51 CALM      30.31R
ENID/WOODRING  CLEAR     43  28  56 NW9       30.26R
$$

OKZ016-021>023-033>039-044-045-190400-
SOUTHWEST OKLAHOMA

CITY           SKY/WX    TMP DP  RH WIND       PRES   REMARKS
LAWTON/REGL    CLEAR     39  33  79 NW5       30.30R
LAWTON/FT SILL CLEAR     46  34  62 NW7       30.28R
FREDERICK      CLEAR     45  26  47 N9        30.28R
CLINTON        CLEAR     41  20  43 NW8       30.31R
HOBART         CLEAR     39  23  52 NW6       30.31R WCI  35
ALTUS AFB      CLEAR     43  20  40 NW8       30.31R
$$

OKZ018>020-024>031-190400-
CENTRAL OKLAHOMA

CITY           SKY/WX    TMP DP  RH WIND       PRES   REMARKS
OKLAHOMA CITY  CLEAR     43  30  60 N7        30.26R
OKC/WILEY POST CLEAR     44  28  53 NW7       30.27R
OKC/TINKER AFB CLEAR     43  29  57 N6        30.26R
STILLWATER     CLEAR     42  32  67 NW5       30.26R
GUTHRIE        CLEAR     43  28  55 CALM      30.27R
$$

OKZ008-013-054>072-190400-
NORTHEAST OKLAHOMA

CITY           SKY/WX    TMP DP  RH WIND       PRES   REMARKS
TULSA          CLEAR     44  33  65 NW7       30.23R
TULSA/JONES    CLEAR     48  32  53 VRB3      30.23R
PONCA CITY     CLEAR     42  25  50 NW3       30.26R
BARTLESVILLE   CLEAR     42  29  59 CALM      30.24R
MUSKOGEE       CLEAR     43  33  68 W9        30.23R
$$

OKZ032-040>043-046>053-073>077-190400-
SOUTH CENTRAL/SOUTHEAST OKLAHOMA

CITY           SKY/WX    TMP DP  RH WIND       PRES   REMARKS
ARDMORE/DWNTWN CLEAR     41  32  70 CALM      30.27R
MCALESTER      PTCLDY    37  32  82 W3        30.23R
$$





USA.gov is the U.S. government's official web portal to all federal, state and local government web resources and services.